QPF
0.00 0.00 0.00 0.00 0.00 0.00 0.00 0.00 0.00 0.00 0.00 0.00 0.00 0.00 0.00 0.01 0.01 0.02 0.03 0.04 0.03 0.02 0.02 0.02 0.02 0.02 0.02 0.03 0.04 0.05 0.05 0.06 0.07 0.07 0.09 0.08 0.07 0.07 0.08 0.07 0.07 0.07 0.08 0.08
0.00 0.00 0.00 0.00 0.00 0.00 0.00 0.00 0.00 0.00 0.00 0.00 0.00 0.00 0.01 0.01 0.02 0.03 0.03 0.08 0.05 0.01 0.01 0.01 0.02 0.01 0.02 0.02 0.03 0.03 0.04 0.05 0.06 0.06 0.05 0.04 0.04 0.04 0.07 0.07 0.07 0.07 0.07 0.07
0.00 0.00 0.00 0.00 0.00 0.00 0.00 0.00 0.00 0.00 0.00 0.00 0.00 0.01 0.01 0.01 0.02 0.03 0.04 0.09 0.06 0.02 0.01 0.01 0.01 0.01 0.01 0.02 0.02 0.02 0.03 0.05 0.05 0.04 0.04 0.04 0.05 0.05 0.06 0.07 0.08 0.08 0.06 0.06
0.00 0.00 0.00 0.00 0.00 0.00 0.00 0.00 0.00 0.00 0.00 0.00 0.00 0.01 0.01 0.01 0.01 0.02 0.03 0.04 0.04 0.03 0.02 0.02 0.02 0.01 0.01 0.01 0.02 0.02 0.02 0.04 0.06 0.04 0.04 0.04 0.05 0.05 0.04 0.04 0.04 0.06 0.05 0.05
0.00 0.00 0.00 0.00 0.00 0.00 0.00 0.00 0.00 0.00 0.00 0.00 0.00 0.01 0.01 0.01 0.01 0.02 0.04 0.04 0.03 0.04 0.03 0.03 0.02 0.01 0.01 0.01 0.01 0.01 0.01 0.02 0.04 0.04 0.03 0.03 0.02 0.02 0.01 0.01 0.02 0.02 0.03 0.03
0.00 0.00 0.00 0.00 0.00 0.00 0.00 0.00 0.00 0.00 0.00 0.01 0.00 0.01 0.01 0.01 0.02 0.02 0.03 0.03 0.03 0.05 0.05 0.04 0.03 0.02 0.01 0.01 0.02 0.01 0.01 0.02 0.02 0.02 0.02 0.03 0.02 0.01 0.01 0.01 0.01 0.01 0.02 0.02
0.00 0.00 0.00 0.00 0.00 0.00 0.00 0.00 0.00 0.00 0.00 0.00 0.00 0.01 0.01 0.01 0.00 0.01 0.02 0.03 0.05 0.05 0.05 0.05 0.04 0.03 0.02 0.01 0.02 0.02 0.01 0.01 0.01 0.01 0.01 0.02 0.02 0.01 0.01 0.01 0.00 0.01 0.01 0.01
0.00 0.00 0.00 0.00 0.00 0.00 0.00 0.00 0.00 0.00 0.00 0.00 0.00 0.01 0.01 0.00 0.00 0.00 0.01 0.03 0.03 0.03 0.04 0.05 0.05 0.04 0.02 0.02 0.02 0.01 0.01 0.01 0.00 0.00 0.01 0.01 0.01 0.01 0.01 0.01 0.01 0.01 0.01 0.01
0.00 0.00 0.00 0.00 0.00 0.00 0.00 0.00 0.00 0.00 0.00 0.01 0.01 0.00 0.00 0.00 0.00 0.00 0.01 0.03 0.02 0.03 0.04 0.05 0.04 0.03 0.02 0.02 0.01 0.01 0.01 0.01 0.01 0.01 0.01 0.00 0.01 0.01 0.01 0.01 0.01 0.01 0.00 0.00
0.00 0.00 0.00 0.00 0.00 0.00 0.00 0.00 0.00 0.00 0.01 0.01 0.01 0.01 0.02 0.01 0.00 0.00 0.01 0.02 0.02 0.03 0.05 0.06 0.06 0.04 0.03 0.02 0.01 0.01 0.01 0.01 0.01 0.01 0.01 0.01 0.01 0.01 0.01 0.01 0.01 0.01 0.00 0.00
0.00 0.00 0.00 0.00 0.00 0.00 0.00 0.00 0.00 0.01 0.00 0.01 0.02 0.02 0.01 0.02 0.00 0.00 0.01 0.02 0.03 0.04 0.05 0.07 0.07 0.06 0.04 0.03 0.02 0.01 0.01 0.01 0.01 0.01 0.01 0.01 0.01 0.01 0.01 0.00 0.00 0.00 0.01 0.01
0.00 0.00 0.00 0.00 0.00 0.00 0.00 0.00 0.00 0.02 0.01 0.01 0.02 0.02 0.01 0.00 0.00 0.00 0.01 0.01 0.03 0.05 0.06 0.07 0.07 0.06 0.04 0.03 0.02 0.02 0.02 0.01 0.01 0.01 0.01 0.01 0.01 0.01 0.01 0.00 0.00 0.00 0.01 0.01
0.00 0.00 0.01 0.01 0.01 0.00 0.00 0.00 0.00 0.01 0.01 0.02 0.03 0.03 0.01 0.01 0.01 0.01 0.02 0.02 0.04 0.05 0.08 0.10 0.09 0.07 0.04 0.03 0.02 0.01 0.01 0.01 0.01 0.01 0.02 0.02 0.01 0.01 0.01 0.00 0.00 0.01 0.01 0.01
0.00 0.00 0.00 0.01 0.01 0.00 0.01 0.01 0.00 0.01 0.03 0.03 0.03 0.03 0.02 0.01 0.02 0.02 0.02 0.03 0.04 0.04 0.04 0.06 0.07 0.06 0.03 0.02 0.02 0.01 0.01 0.01 0.01 0.01 0.01 0.01 0.01 0.01 0.01 0.00 0.01 0.01 0.01 0.01
0.00 0.01 0.00 0.00 0.00 0.01 0.01 0.01 0.01 0.01 0.01 0.02 0.03 0.03 0.03 0.02 0.02 0.02 0.01 0.02 0.03 0.02 0.03 0.03 0.03 0.04 0.04 0.04 0.03 0.02 0.01 0.01 0.01 0.01 0.01 0.01 0.01 0.01 0.01 0.01 0.00 0.01 0.01 0.01
0.01 0.01 0.01 0.01 0.01 0.01 0.01 0.01 0.01 0.01 0.01 0.02 0.03 0.03 0.01 0.01 0.01 0.01 0.01 0.03 0.03 0.03 0.03 0.05 0.05 0.06 0.06 0.04 0.02 0.02 0.01 0.01 0.01 0.01 0.01 0.01 0.01 0.01 0.01 0.01 0.01 0.01 0.02 0.02
0.01 0.01 0.02 0.02 0.01 0.02 0.03 0.03 0.02 0.02 0.01 0.02 0.03 0.03 0.01 0.01 0.02 0.01 0.02 0.04 0.07 0.07 0.07 0.07 0.07 0.06 0.05 0.04 0.04 0.04 0.03 0.03 0.02 0.02 0.02 0.02 0.02 0.01 0.01 0.01 0.02 0.02 0.02 0.02
0.01 0.01 0.02 0.02 0.03 0.05 0.04 0.03 0.03 0.03 0.02 0.01 0.01 0.01 0.02 0.02 0.02 0.02 0.03 0.05 0.07 0.09 0.09 0.09 0.08 0.07 0.07 0.08 0.08 0.07 0.06 0.05 0.04 0.04 0.03 0.03 0.02 0.01 0.01 0.02 0.02 0.02 0.02 0.02
0.01 0.01 0.02 0.03 0.04 0.05 0.04 0.03 0.04 0.05 0.04 0.04 0.03 0.01 0.01 0.01 0.01 0.03 0.04 0.05 0.06 0.07 0.07 0.08 0.07 0.07 0.08 0.09 0.10 0.08 0.06 0.04 0.03 0.04 0.03 0.03 0.02 0.02 0.02 0.02 0.03 0.02 0.02 0.02
0.00 0.01 0.02 0.02 0.02 0.04 0.04 0.02 0.02 0.04 0.06 0.03 0.03 0.01 0.01 0.01 0.02 0.02 0.03 0.04 0.03 0.03 0.04 0.05 0.06 0.08 0.09 0.11 0.11 0.09 0.07 0.05 0.04 0.03 0.02 0.02 0.02 0.02 0.02 0.03 0.03 0.02 0.03 0.03
0.01 0.01 0.01 0.02 0.02 0.02 0.01 0.01 0.02 0.05 0.05 0.02 0.01 0.01 0.01 0.01 0.02 0.02 0.03 0.03 0.03 0.03 0.03 0.03 0.04 0.07 0.10 0.11 0.09 0.07 0.07 0.05 0.03 0.02 0.02 0.02 0.02 0.01 0.01 0.02 0.02 0.02 0.02 0.03
0.01 0.01 0.01 0.01 0.02 0.03 0.01 0.02 0.02 0.02 0.01 0.01 0.02 0.03 0.03 0.03 0.03 0.02 0.02 0.01 0.01 0.01 0.02 0.02 0.03 0.05 0.07 0.07 0.05 0.06 0.06 0.05 0.02 0.02 0.03 0.03 0.02 0.01 0.01 0.02 0.02 0.02 0.03 0.03
0.00 0.00 0.01 0.01 0.02 0.01 0.01 0.01 0.01 0.01 0.00 0.01 0.03 0.03 0.03 0.02 0.01 0.02 0.02 0.01 0.01 0.01 0.02 0.02 0.03 0.05 0.07 0.05 0.05 0.08 0.07 0.04 0.03 0.03 0.03 0.02 0.01 0.01 0.01 0.01 0.02 0.02 0.03 0.03
0.00 0.00 0.00 0.01 0.01 0.00 0.01 0.01 0.01 0.01 0.00 0.01 0.01 0.01 0.01 0.01 0.01 0.01 0.02 0.01 0.01 0.02 0.02 0.02 0.03 0.04 0.03 0.02 0.05 0.06 0.04 0.02 0.02 0.04 0.03 0.02 0.01 0.01 0.01 0.01 0.01 0.01 0.02 0.03
0.01 0.01 0.01 0.01 0.01 0.01 0.01 0.01 0.01 0.00 0.00 0.00 0.00 0.00 0.00 0.01 0.01 0.02 0.02 0.02 0.02 0.02 0.02 0.02 0.02 0.02 0.01 0.02 0.03 0.03 0.02 0.03 0.04 0.05 0.04 0.03 0.02 0.01 0.01 0.01 0.01 0.01 0.01 0.01
0.00 0.01 0.01 0.02 0.01 0.01 0.01 0.01 0.00 0.00 0.00 0.00 0.00 0.00 0.00 0.01 0.01 0.01 0.01 0.02 0.01 0.02 0.02 0.02 0.02 0.02 0.02 0.02 0.02 0.02 0.02 0.03 0.05 0.05 0.04 0.03 0.02 0.01 0.01 0.00 0.00 0.00 0.00 0.00
MSLP
1011.18 1011.29 1011.32 1011.29 1011.23 1011.19 1011.19 1011.27 1011.41 1011.62 1011.87 1012.16 1012.46 1012.76 1013.08 1013.41 1013.77 1014.16 1014.59 1015.03 1015.48 1015.92 1016.33 1016.69 1017.00 1017.26 1017.48 1017.67 1017.83 1017.96 1018.07 1018.15 1018.20 1018.21 1018.19 1018.15 1018.11 1018.11 1018.15 1018.25 1018.41 1018.62 1018.88 1019.14
1011.27 1011.31 1011.27 1011.18 1011.09 1011.05 1011.07 1011.18 1011.37 1011.62 1011.89 1012.17 1012.44 1012.68 1012.91 1013.14 1013.41 1013.72 1014.10 1014.54 1015.03 1015.54 1016.06 1016.54 1016.98 1017.36 1017.69 1017.95 1018.15 1018.30 1018.40 1018.45 1018.46 1018.42 1018.36 1018.30 1018.24 1018.23 1018.27 1018.38 1018.56 1018.79 1019.07 1019.35
1011.28 1011.26 1011.17 1011.06 1010.97 1010.94 1011.01 1011.17 1011.41 1011.69 1011.98 1012.24 1012.45 1012.62 1012.75 1012.88 1013.05 1013.30 1013.63 1014.07 1014.59 1015.18 1015.80 1016.41 1016.98 1017.48 1017.91 1018.25 1018.50 1018.68 1018.78 1018.81 1018.79 1018.73 1018.65 1018.57 1018.51 1018.50 1018.55 1018.67 1018.85 1019.09 1019.35 1019.63
1011.23 1011.17 1011.06 1010.95 1010.89 1010.91 1011.03 1011.25 1011.53 1011.85 1012.14 1012.37 1012.53 1012.61 1012.64 1012.67 1012.75 1012.92 1013.22 1013.66 1014.22 1014.89 1015.60 1016.33 1017.02 1017.63 1018.15 1018.56 1018.87 1019.07 1019.18 1019.21 1019.19 1019.13 1019.05 1018.98 1018.94 1018.94 1019.00 1019.12 1019.29 1019.50 1019.73 1019.95
1011.15 1011.08 1010.98 1010.89 1010.88 1010.95 1011.14 1011.41 1011.74 1012.07 1012.35 1012.54 1012.63 1012.63 1012.57 1012.51 1012.51 1012.63 1012.91 1013.35 1013.96 1014.69 1015.49 1016.31 1017.10 1017.80 1018.39 1018.86 1019.21 1019.44 1019.57 1019.61 1019.61 1019.57 1019.52 1019.47 1019.46 1019.48 1019.55 1019.66 1019.81 1019.98 1020.15 1020.30
1011.10 1011.03 1010.95 1010.91 1010.95 1011.08 1011.32 1011.64 1011.99 1012.32 1012.57 1012.71 1012.73 1012.65 1012.52 1012.39 1012.34 1012.43 1012.70 1013.17 1013.81 1014.60 1015.48 1016.37 1017.22 1017.98 1018.62 1019.13 1019.50 1019.75 1019.89 1019.97 1019.99 1019.99 1019.98 1019.98 1020.01 1020.06 1020.14 1020.24 1020.36 1020.47 1020.56 1020.63
1011.11 1011.05 1011.00 1011.00 1011.09 1011.27 1011.54 1011.88 1012.23 1012.54 1012.75 1012.84 1012.80 1012.66 1012.47 1012.30 1012.23 1012.32 1012.61 1013.11 1013.80 1014.64 1015.56 1016.50 1017.38 1018.17 1018.82 1019.33 1019.71 1019.97 1020.13 1020.23 1020.30 1020.34 1020.39 1020.45 1020.52 1020.60 1020.69 1020.78 1020.85 1020.89 1020.91 1020.88
1011.22 1011.17 1011.15 1011.17 1011.29 1011.49 1011.78 1012.11 1012.44 1012.71 1012.87 1012.91 1012.82 1012.64 1012.42 1012.25 1012.19 1012.31 1012.64 1013.18 1013.92 1014.80 1015.75 1016.70 1017.58 1018.36 1018.99 1019.49 1019.85 1020.10 1020.28 1020.41 1020.51 1020.62 1020.72 1020.83 1020.95 1021.06 1021.15 1021.22 1021.24 1021.22 1021.16 1021.05
1011.43 1011.39 1011.37 1011.41 1011.53 1011.74 1012.01 1012.32 1012.61 1012.82 1012.94 1012.93 1012.80 1012.61 1012.40 1012.25 1012.24 1012.41 1012.80 1013.40 1014.18 1015.08 1016.04 1016.98 1017.84 1018.58 1019.17 1019.63 1019.96 1020.20 1020.38 1020.53 1020.68 1020.83 1020.99 1021.15 1021.30 1021.42 1021.51 1021.54 1021.52 1021.44 1021.31 1021.14
1011.74 1011.69 1011.67 1011.71 1011.82 1012.01 1012.25 1012.52 1012.76 1012.93 1012.99 1012.95 1012.81 1012.62 1012.44 1012.35 1012.40 1012.64 1013.10 1013.76 1014.58 1015.50 1016.45 1017.36 1018.17 1018.85 1019.39 1019.80 1020.10 1020.32 1020.50 1020.67 1020.84 1021.03 1021.23 1021.42 1021.59 1021.72 1021.79 1021.79 1021.72 1021.59 1021.40 1021.19
1012.12 1012.06 1012.03 1012.06 1012.16 1012.33 1012.54 1012.77 1012.97 1013.09 1013.12 1013.06 1012.92 1012.75 1012.62 1012.59 1012.71 1013.03 1013.56 1014.27 1015.12 1016.04 1016.97 1017.84 1018.60 1019.22 1019.70 1020.05 1020.31 1020.51 1020.69 1020.87 1021.06 1021.28 1021.50 1021.70 1021.87 1021.99 1022.03 1021.99 1021.88 1021.70 1021.48 1021.24
1012.55 1012.48 1012.45 1012.48 1012.58 1012.74 1012.94 1013.14 1013.31 1013.40 1013.41 1013.33 1013.20 1013.06 1012.98 1013.01 1013.20 1013.59 1014.17 1014.91 1015.78 1016.69 1017.59 1018.41 1019.11 1019.67 1020.09 1020.40 1020.63 1020.81 1020.99 1021.17 1021.38 1021.60 1021.83 1022.03 1022.18 1022.27 1022.27 1022.20 1022.04 1021.83 1021.59 1021.33
1013.01 1012.96 1012.94 1012.99 1013.11 1013.29 1013.49 1013.69 1013.84 1013.92 1013.91 1013.84 1013.71 1013.60 1013.55 1013.62 1013.86 1014.29 1014.90 1015.66 1016.52 1017.41 1018.27 1019.04 1019.69 1020.20 1020.58 1020.85 1021.05 1021.23 1021.40 1021.58 1021.79 1022.01 1022.22 1022.40 1022.52 1022.57 1022.54 1022.42 1022.23 1022.00 1021.75 1021.50
1013.51 1013.48 1013.51 1013.61 1013.77 1013.99 1014.22 1014.43 1014.59 1014.67 1014.66 1014.57 1014.45 1014.34 1014.31 1014.40 1014.66 1015.10 1015.72 1016.47 1017.31 1018.16 1018.98 1019.70 1020.30 1020.77 1021.11 1021.36 1021.54 1021.70 1021.87 1022.05 1022.24 1022.44 1022.63 1022.78 1022.86 1022.87 1022.80 1022.65 1022.45 1022.21 1021.96 1021.72
1014.03 1014.06 1014.15 1014.32 1014.56 1014.83 1015.11 1015.36 1015.53 1015.61 1015.59 1015.50 1015.36 1015.25 1015.20 1015.29 1015.54 1015.97 1016.56 1017.28 1018.08 1018.90 1019.67 1020.34 1020.90 1021.33 1021.64 1021.87 1022.04 1022.18 1022.33 1022.50 1022.67 1022.84 1023.00 1023.10 1023.15 1023.13 1023.03 1022.86 1022.66 1022.43 1022.20 1022.00
1014.58 1014.68 1014.86 1015.11 1015.43 1015.77 1016.11 1016.39 1016.58 1016.66 1016.63 1016.51 1016.35 1016.21 1016.14 1016.19 1016.42 1016.81 1017.36 1018.04 1018.80 1019.56 1020.28 1020.91 1021.43 1021.83 1022.12 1022.32 1022.47 1022.60 1022.73 1022.86 1023.00 1023.14 1023.25 1023.33 1023.34 1023.30 1023.19 1023.03 1022.84 1022.65 1022.46 1022.30
1015.14 1015.32 1015.59 1015.93 1016.33 1016.74 1017.12 1017.42 1017.61 1017.68 1017.63 1017.48 1017.29 1017.11 1017.01 1017.03 1017.21 1017.57 1018.08 1018.71 1019.41 1020.13 1020.80 1021.39 1021.87 1022.23 1022.49 1022.67 1022.79 1022.90 1022.99 1023.09 1023.20 1023.30 1023.38 1023.42 1023.42 1023.37 1023.27 1023.15 1023.00 1022.85 1022.72 1022.62
1015.69 1015.95 1016.30 1016.71 1017.16 1017.61 1018.01 1018.32 1018.50 1018.54 1018.46 1018.29 1018.06 1017.86 1017.72 1017.72 1017.87 1018.19 1018.66 1019.25 1019.91 1020.58 1021.20 1021.75 1022.19 1022.52 1022.74 1022.89 1022.98 1023.05 1023.11 1023.17 1023.24 1023.31 1023.36 1023.40 1023.40 1023.37 1023.30 1023.23 1023.14 1023.06 1023.00 1022.96
1016.19 1016.52 1016.93 1017.38 1017.86 1018.31 1018.70 1018.98 1019.13 1019.14 1019.03 1018.83 1018.59 1018.37 1018.23 1018.21 1018.36 1018.66 1019.11 1019.67 1020.29 1020.91 1021.50 1022.00 1022.40 1022.69 1022.88 1022.99 1023.05 1023.08 1023.11 1023.14 1023.18 1023.23 1023.28 1023.31 1023.34 1023.34 1023.33 1023.32 1023.31 1023.31 1023.33 1023.35
1016.63 1017.01 1017.43 1017.89 1018.35 1018.77 1019.12 1019.35 1019.46 1019.43 1019.30 1019.09 1018.86 1018.65 1018.53 1018.54 1018.69 1019.00 1019.44 1019.98 1020.57 1021.16 1021.70 1022.16 1022.51 1022.76 1022.92 1023.00 1023.03 1023.03 1023.04 1023.05 1023.08 1023.13 1023.19 1023.25 1023.31 1023.37 1023.42 1023.48 1023.55 1023.63 1023.72 1023.81
1017.00 1017.38 1017.79 1018.22 1018.62 1018.98 1019.26 1019.43 1019.49 1019.43 1019.29 1019.10 1018.90 1018.75 1018.68 1018.73 1018.93 1019.26 1019.70 1020.23 1020.79 1021.34 1021.83 1022.24 1022.55 1022.76 1022.89 1022.94 1022.96 1022.96 1022.96 1022.97 1023.02 1023.08 1023.17 1023.27 1023.37 1023.49 1023.61 1023.75 1023.88 1024.03 1024.18 1024.32
1017.28 1017.65 1018.02 1018.37 1018.70 1018.97 1019.16 1019.27 1019.28 1019.22 1019.10 1018.95 1018.81 1018.74 1018.75 1018.87 1019.12 1019.49 1019.94 1020.45 1020.97 1021.48 1021.92 1022.28 1022.54 1022.72 1022.82 1022.87 1022.88 1022.89 1022.91 1022.95 1023.03 1023.13 1023.26 1023.40 1023.56 1023.74 1023.92 1024.10 1024.30 1024.49 1024.68 1024.86
1017.50 1017.82 1018.12 1018.40 1018.63 1018.80 1018.92 1018.97 1018.96 1018.90 1018.82 1018.74 1018.70 1018.72 1018.83 1019.04 1019.34 1019.74 1020.19 1020.68 1021.16 1021.60 1021.98 1022.29 1022.51 1022.65 1022.74 1022.79 1022.83 1022.87 1022.93 1023.02 1023.14 1023.29 1023.46 1023.66 1023.86 1024.07 1024.29 1024.52 1024.74 1024.96 1025.17 1025.37
1017.67 1017.94 1018.16 1018.34 1018.48 1018.57 1018.62 1018.63 1018.62 1018.59 1018.58 1018.60 1018.66 1018.79 1019.00 1019.28 1019.64 1020.05 1020.49 1020.93 1021.35 1021.73 1022.04 1022.28 1022.46 1022.59 1022.67 1022.74 1022.81 1022.90 1023.01 1023.16 1023.33 1023.53 1023.75 1023.97 1024.20 1024.44 1024.67 1024.91 1025.14 1025.36 1025.57 1025.76
1017.81 1018.01 1018.16 1018.25 1018.31 1018.34 1018.34 1018.34 1018.35 1018.39 1018.46 1018.58 1018.75 1018.99 1019.29 1019.64 1020.02 1020.43 1020.83 1021.22 1021.57 1021.86 1022.10 1022.29 1022.43 1022.54 1022.63 1022.73 1022.84 1022.98 1023.15 1023.35 1023.57 1023.80 1024.04 1024.28 1024.52 1024.75 1024.97 1025.19 1025.40 1025.61 1025.80 1025.98
1017.92 1018.05 1018.13 1018.17 1018.17 1018.15 1018.15 1018.16 1018.22 1018.32 1018.49 1018.71 1018.99 1019.32 1019.69 1020.08 1020.47 1020.86 1021.21 1021.53 1021.80 1022.01 1022.18 1022.32 1022.42 1022.53 1022.64 1022.77 1022.92 1023.11 1023.32 1023.56 1023.80 1024.05 1024.29 1024.51 1024.73 1024.93 1025.12 1025.30 1025.48 1025.66 1025.83 1025.99
Thickness
5720 5720 5721 5727 5733 5738 5736 5733 5729 5729 5735 5735 5731 5725 5721 5721 5720 5717 5714 5711 5706 5700 5696 5694 5692 5690 5688 5686 5684 5683 5682 5681 5684 5686 5687 5687 5686 5686 5686 5686 5686 5688 5689 5690
5713 5716 5726 5730 5730 5729 5729 5727 5724 5723 5728 5729 5725 5719 5720 5718 5716 5716 5712 5708 5703 5696 5690 5688 5687 5685 5683 5680 5678 5678 5676 5677 5679 5679 5679 5680 5680 5681 5681 5680 5680 5682 5682 5683
5716 5722 5726 5723 5721 5720 5724 5726 5725 5719 5719 5723 5717 5708 5711 5713 5714 5712 5711 5708 5702 5695 5689 5684 5682 5681 5678 5675 5673 5672 5671 5671 5673 5674 5676 5675 5676 5676 5676 5674 5673 5674 5675 5675
5718 5723 5721 5720 5720 5723 5718 5730 5729 5721 5715 5715 5716 5706 5712 5713 5708 5706 5705 5703 5699 5693 5688 5683 5679 5675 5672 5669 5668 5666 5665 5666 5666 5668 5670 5670 5669 5667 5665 5666 5666 5666 5667 5668
5715 5720 5719 5718 5722 5725 5725 5731 5728 5724 5722 5716 5715 5712 5717 5715 5706 5706 5704 5701 5697 5691 5685 5679 5674 5670 5666 5665 5663 5661 5660 5659 5660 5661 5662 5662 5661 5660 5659 5660 5659 5659 5660 5660
5720 5725 5725 5723 5726 5727 5726 5723 5720 5721 5721 5703 5713 5709 5711 5714 5711 5710 5707 5701 5694 5688 5680 5673 5668 5664 5660 5659 5657 5655 5653 5652 5653 5653 5653 5653 5652 5651 5651 5652 5653 5654 5654 5654
5710 5717 5723 5726 5718 5719 5720 5711 5700 5697 5698 5703 5714 5706 5709 5715 5716 5713 5706 5698 5690 5684 5675 5667 5662 5658 5654 5652 5650 5648 5647 5645 5645 5645 5644 5644 5644 5644 5643 5644 5645 5646 5647 5646
5700 5702 5714 5719 5718 5714 5717 5716 5701 5689 5693 5704 5703 5701 5708 5709 5710 5709 5704 5696 5685 5678 5670 5663 5657 5653 5649 5645 5644 5642 5640 5638 5637 5637 5636 5636 5636 5638 5637 5635 5637 5637 5638 5637
5702 5701 5714 5716 5720 5720 5712 5716 5722 5709 5706 5699 5703 5704 5700 5699 5698 5698 5694 5686 5679 5671 5664 5657 5652 5647 5643 5640 5637 5634 5632 5630 5629 5628 5628 5627 5627 5627 5627 5627 5629 5630 5628 5629
5705 5695 5707 5712 5717 5716 5719 5715 5708 5703 5687 5683 5695 5697 5696 5690 5687 5685 5681 5676 5671 5664 5657 5650 5645 5641 5637 5633 5629 5626 5624 5622 5620 5620 5620 5620 5619 5618 5618 5618 5618 5618 5619 5619
5704 5692 5696 5702 5699 5701 5704 5704 5703 5705 5702 5687 5681 5686 5692 5690 5687 5681 5675 5669 5661 5655 5649 5643 5638 5634 5630 5626 5622 5618 5615 5613 5611 5610 5610 5609 5609 5609 5609 5608 5608 5608 5608 5609
5696 5693 5687 5692 5701 5706 5703 5700 5698 5687 5688 5692 5688 5679 5683 5685 5683 5677 5669 5662 5655 5648 5641 5636 5631 5626 5622 5618 5615 5611 5607 5605 5603 5602 5601 5600 5599 5599 5599 5599 5598 5598 5598 5600
5690 5683 5673 5676 5684 5694 5693 5695 5695 5693 5689 5685 5679 5672 5676 5676 5672 5667 5660 5652 5646 5640 5633 5628 5622 5618 5614 5610 5606 5603 5600 5597 5596 5594 5593 5591 5590 5589 5589 5588 5588 5588 5589 5590
5688 5682 5676 5669 5676 5685 5683 5686 5690 5687 5681 5678 5676 5673 5667 5664 5660 5656 5650 5643 5638 5632 5626 5620 5614 5609 5605 5600 5597 5595 5592 5590 5587 5586 5584 5581 5580 5579 5579 5578 5578 5579 5580 5580
5684 5677 5678 5679 5681 5682 5679 5679 5681 5679 5678 5673 5671 5667 5658 5656 5653 5648 5642 5636 5629 5623 5617 5612 5606 5601 5596 5592 5589 5586 5583 5581 5579 5578 5576 5573 5571 5570 5569 5569 5569 5570 5570 5571
5677 5672 5672 5670 5674 5675 5669 5671 5671 5670 5670 5668 5665 5654 5654 5651 5647 5640 5633 5627 5620 5614 5609 5604 5599 5594 5589 5584 5580 5577 5574 5572 5570 5569 5567 5564 5562 5561 5560 5559 5560 5560 5560 5561
5674 5668 5665 5663 5669 5666 5654 5657 5660 5659 5660 5660 5654 5648 5646 5641 5636 5631 5625 5619 5613 5607 5601 5596 5592 5587 5582 5577 5573 5570 5567 5564 5562 5560 5558 5556 5554 5552 5552 5552 5551 5551 5551 5551
5667 5666 5666 5663 5656 5642 5645 5657 5655 5653 5651 5651 5647 5643 5639 5634 5629 5625 5619 5613 5606 5601 5595 5589 5583 5579 5574 5569 5565 5561 5559 5556 5554 5552 5551 5548 5546 5545 5544 5543 5542 5542 5542 5542
5668 5664 5662 5657 5649 5645 5646 5651 5651 5647 5642 5643 5640 5636 5633 5629 5623 5616 5611 5607 5601 5594 5587 5581 5576 5572 5567 5562 5558 5555 5552 5549 5547 5545 5543 5540 5539 5537 5536 5535 5533 5533 5533 5533
5666 5665 5662 5657 5647 5638 5641 5651 5654 5648 5636 5638 5637 5631 5629 5625 5619 5609 5602 5598 5592 5585 5579 5573 5568 5564 5559 5554 5551 5548 5545 5542 5540 5538 5535 5533 5531 5529 5528 5526 5525 5525 5526 5526
5657 5656 5656 5654 5647 5643 5646 5651 5652 5638 5630 5634 5633 5628 5624 5619 5614 5603 5596 5590 5584 5577 5572 5566 5562 5558 5553 5548 5545 5541 5539 5536 5533 5531 5528 5526 5524 5523 5521 5520 5519 5519 5520 5520
5655 5653 5650 5651 5644 5637 5644 5648 5640 5633 5634 5632 5628 5624 5617 5611 5604 5597 5590 5583 5577 5570 5565 5560 5555 5551 5546 5543 5540 5537 5533 5530 5528 5525 5523 5520 5519 5518 5517 5515 5514 5514 5515 5515
5651 5650 5652 5647 5640 5638 5641 5639 5636 5635 5631 5627 5624 5619 5612 5605 5599 5592 5584 5578 5571 5565 5560 5555 5551 5546 5541 5538 5536 5533 5529 5526 5523 5521 5518 5516 5514 5513 5512 5511 5510 5511 5511 5514
5648 5650 5649 5643 5639 5639 5639 5639 5636 5634 5629 5625 5621 5615 5610 5602 5595 5588 5580 5573 5566 5560 5555 5551 5547 5542 5538 5535 5532 5529 5526 5523 5521 5518 5515 5513 5511 5510 5508 5508 5509 5509 5509 5509
5648 5649 5646 5640 5638 5638 5636 5635 5633 5630 5627 5622 5617 5612 5606 5600 5592 5585 5577 5570 5564 5558 5552 5547 5543 5540 5536 5533 5529 5527 5524 5521 5518 5515 5512 5511 5510 5509 5506 5505 5503 5504 5502 5502
5649 5647 5645 5641 5640 5639 5633 5634 5632 5627 5623 5618 5613 5607 5603 5598 5590 5583 5576 5568 5562 5556 5551 5545 5541 5538 5534 5531 5528 5524 5521 5519 5516 5514 5512 5511 5509 5508 5507 5506 5503 5496 5497 5496